RADUGA-1 2 [-]

Last updated on Oct. 26, 2020, 5:52 a.m. UTC

1 21038U 90116A   20299.78316133  .00000014  00000-0  00000+0 0  9999
2 21038  14.6192 354.0626 0007980  63.8844 317.4154  1.00317254109257
UTC
Height (km)
Latitude
Longitude
Inclination
Orbital Period
UTC large
Height (km)
Speed (km/s)
/
Latitude / Longitude
Inclination (degrees)
Orbital Period (minutes)
Azimuth
Elevation
Range (km)
Doppler Factor
iOS Compass Heading
iOS Angle

Next 30 passes for location: Hong Kong

Rise time Rise Azimuth (degrees) Set time Set Azimuth (degrees) Duration Max altitude (degrees)

No matching passes for this satellites